Simultaneous Nadir Overpasses (SNOs) Predictions

Prediction of SNOs between GOES-16 and TERRA Satellite Orbit:

Table of predicted SNOs for the next 14.0 days since TLE Epoch: 2/28/2025
Index Date Time (GOES-16) GOES-16 Lat,Lon TERRA Lat,Lon Distance(km) Time Diff (sec)
1 03/02/2025 14:15:13 0.04, -75.22 -0.71, -71.74 396.01 80
2 03/03/2025 02:37:34 -0.04, -75.19 -0.34, -76.52 151.73 80
3 03/05/2025 02:16:08 -0.03, -75.20 0.60, -72.00 363.35 80
4 03/05/2025 14:35:43 0.04, -75.24 0.36, -76.77 173.91 80
5 03/07/2025 14:19:36 0.03, -75.25 -0.58, -72.24 341.99 80
6 03/08/2025 02:39:18 -0.04, -75.23 -0.38, -77.04 205.15 80
7 03/10/2025 02:17:50 -0.03, -75.25 0.55, -72.51 312.02 80
8 03/10/2025 14:37:23 0.04, -75.29 0.45, -77.27 224.82 80
9 03/12/2025 14:21:15 0.04, -75.32 -0.48, -72.73 294.17 80
10 03/13/2025 02:40:55 -0.04, -75.31 -0.52, -77.52 251.95 80
